When you browse on this site, cookies collect data to enhance your experience and personalize the content and advertising you see.
Visit our Privacy Policy to learn more. By continuing to use the site, you agree to this use of cookies and data.
  • în România
  • Lista ţărilor
  • Pe 7 zile
  • Temperatura apei
  • Hartă satelitară
  • Meteo pe hartă
  • Widget-uri
  • user-avatar
    Intrare

    Meteo pe oră la Limay

    Astăzi, 16 Iunie, Duminică

    Timp Temperatura Precipitaţii Vânt Presiune Umiditate
    00:00 +12°C° 0 mm 4 m/s 752 mmHg 93%
    01:00 +12°C° 0 mm 4 m/s 752 mmHg 92%
    02:00 +12°C° 0 mm 4 m/s 752 mmHg 92%
    03:00 +12°C° 0 mm 4 m/s 752 mmHg 91%
    04:00 +12°C° 0 mm 4 m/s 752 mmHg 90%
    05:00 +13°C° 0 mm 4 m/s 753 mmHg 89%
    06:00 +13°C° 0 mm 4 m/s 753 mmHg 87%
    07:00 +14°C° 0.1 mm 4 m/s 753 mmHg 85%
    08:00 +15°C° 0.1 mm 4 m/s 753 mmHg 82%
    09:00 +17°C° 0.1 mm 4 m/s 754 mmHg 79%
    10:00 +18°C° 0.1 mm 4 m/s 754 mmHg 76%
    11:00 +19°C° 0.1 mm 4 m/s 754 mmHg 72%
    12:00 +20°C° 0.1 mm 4 m/s 754 mmHg 69%
    13:00 +20°C° 0.2 mm 4 m/s 754 mmHg 68%
    14:00 +21°C° 0.2 mm 4 m/s 753 mmHg 68%
    15:00 +21°C° 0.2 mm 4 m/s 753 mmHg 67%
    16:00 +21°C° 0 mm 4 m/s 753 mmHg 70%
    17:00 +21°C° 0 mm 3 m/s 753 mmHg 73%
    18:00 +20°C° 0 mm 3 m/s 753 mmHg 77%
    19:00 +19°C° 0 mm 2 m/s 753 mmHg 80%
    20:00 +17°C° 0 mm 2 m/s 753 mmHg 84%
    21:00 +16°C° 0 mm 1 m/s 753 mmHg 88%
    22:00 +15°C° 0 mm 1 m/s 753 mmHg 88%
    23:00 +14°C° 0 mm 1 m/s 753 mmHg 89%

    Mâine, 17 Iunie, Luni

    Timp Temperatura Precipitaţii Vânt Presiune Umiditate
    00:00 +14°C° 0 mm 1 m/s 753 mmHg 89%
    01:00 +13°C° 0 mm 1 m/s 753 mmHg 89%
    02:00 +13°C° 0 mm 1 m/s 753 mmHg 90%
    03:00 +12°C° 0 mm 1 m/s 753 mmHg 90%
    04:00 +12°C° 0 mm 0 m/s 753 mmHg 89%
    05:00 +13°C° 0 mm 0 m/s 753 mmHg 88%
    06:00 +14°C° 0 mm 0 m/s 753 mmHg 87%
    07:00 +16°C° 0 mm 0 m/s 753 mmHg 80%
    08:00 +20°C° 0 mm 1 m/s 753 mmHg 74%
    09:00 +21°C° 0 mm 1 m/s 753 mmHg 68%
    10:00 +22°C° 0 mm 1 m/s 753 mmHg 63%
    11:00 +24°C° 0 mm 1 m/s 753 mmHg 58%
    12:00 +23°C° 0 mm 0 m/s 753 mmHg 54%
    13:00 +25°C° 0 mm 1 m/s 752 mmHg 53%
    14:00 +25°C° 0 mm 1 m/s 752 mmHg 53%
    15:00 +25°C° 0 mm 1 m/s 752 mmHg 53%
    16:00 +25°C° 0 mm 1 m/s 751 mmHg 58%
    17:00 +24°C° 0 mm 1 m/s 751 mmHg 64%
    18:00 +23°C° 0 mm 2 m/s 751 mmHg 69%
    19:00 +21°C° 0 mm 2 m/s 751 mmHg 74%
    20:00 +19°C° 0 mm 2 m/s 751 mmHg 78%
    21:00 +17°C° 0 mm 2 m/s 751 mmHg 83%
    22:00 +17°C° 0 mm 2 m/s 751 mmHg 85%
    23:00 +16°C° 0 mm 2 m/s 751 mmHg 88%

    Poimâine, 18 Iunie, Marţi

    Timp Temperatura Precipitaţii Vânt Presiune Umiditate
    00:00 +16°C° 0 mm 2 m/s 751 mmHg 90%
    01:00 +15°C° 0 mm 2 m/s 750 mmHg 91%
    02:00 +15°C° 0 mm 2 m/s 750 mmHg 91%
    03:00 +14°C° 0 mm 2 m/s 750 mmHg 92%
    04:00 +15°C° 0 mm 2 m/s 750 mmHg 90%
    05:00 +16°C° 0 mm 2 m/s 750 mmHg 89%
    06:00 +17°C° 0 mm 2 m/s 750 mmHg 87%
    07:00 +19°C° 0 mm 2 m/s 750 mmHg 81%
    08:00 +20°C° 0 mm 2 m/s 749 mmHg 75%
    09:00 +23°C° 0 mm 2 m/s 749 mmHg 69%
    10:00 +24°C° 0 mm 2 m/s 749 mmHg 64%
    11:00 +25°C° 0 mm 2 m/s 749 mmHg 59%
    12:00 +26°C° 0 mm 2 m/s 748 mmHg 53%
    13:00 +26°C° 0.1 mm 2 m/s 748 mmHg 56%
    14:00 +26°C° 0.1 mm 2 m/s 748 mmHg 59%
    15:00 +26°C° 0.1 mm 2 m/s 747 mmHg 62%
    16:00 +25°C° 0.1 mm 2 m/s 747 mmHg 66%
    17:00 +25°C° 0.1 mm 2 m/s 747 mmHg 69%
    18:00 +24°C° 0.1 mm 2 m/s 747 mmHg 72%
    19:00 +23°C° 0 mm 2 m/s 747 mmHg 74%
    20:00 +20°C° 0 mm 2 m/s 747 mmHg 77%
    21:00 +20°C° 0 mm 1 m/s 746 mmHg 79%
    22:00 +20°C° 0 mm 1 m/s 746 mmHg 79%
    23:00 +20°C° 0 mm 1 m/s 746 mmHg 79%

    19 Iunie, Miercuri

    Timp Temperatura Precipitaţii Vânt Presiune Umiditate
    00:00 +18°C° 0 mm 2 m/s 745 mmHg 80%
    01:00 +18°C° 0.1 mm 2 m/s 745 mmHg 81%
    02:00 +18°C° 0.1 mm 2 m/s 744 mmHg 83%
    03:00 +17°C° 0.1 mm 2 m/s 744 mmHg 85%
    04:00 +18°C° 0.4 mm 2 m/s 744 mmHg 85%
    05:00 +18°C° 0.4 mm 3 m/s 744 mmHg 85%
    06:00 +19°C° 0.4 mm 3 m/s 744 mmHg 85%
    07:00 +20°C° 0.4 mm 3 m/s 744 mmHg 81%
    08:00 +22°C° 0.4 mm 3 m/s 744 mmHg 76%
    09:00 +24°C° 0.4 mm 3 m/s 744 mmHg 71%
    10:00 +23°C° 0.2 mm 4 m/s 744 mmHg 70%
    11:00 +25°C° 0.2 mm 5 m/s 744 mmHg 68%
    12:00 +26°C° 0.2 mm 7 m/s 744 mmHg 67%
    13:00 +24°C° 0.1 mm 7 m/s 744 mmHg 66%
    14:00 +24°C° 0.1 mm 7 m/s 745 mmHg 65%
    15:00 +23°C° 0.1 mm 8 m/s 745 mmHg 65%
    16:00 +23°C° 0.1 mm 7 m/s 745 mmHg 68%
    17:00 +22°C° 0.1 mm 6 m/s 745 mmHg 72%
    18:00 +21°C° 0.1 mm 5 m/s 745 mmHg 75%
    19:00 +19°C° 0.1 mm 5 m/s 745 mmHg 79%
    20:00 +18°C° 0.1 mm 4 m/s 746 mmHg 84%
    21:00 +17°C° 0.1 mm 4 m/s 746 mmHg 88%
    22:00 +15°C° 0 mm 4 m/s 746 mmHg 90%
    23:00 +14°C° 0 mm 3 m/s 747 mmHg 92%

    20 Iunie, Joi

    Timp Temperatura Precipitaţii Vânt Presiune Umiditate
    00:00 +14°C° 0 mm 3 m/s 747 mmHg 94%
    01:00 +13°C° 0 mm 3 m/s 747 mmHg 94%
    02:00 +13°C° 0 mm 3 m/s 747 mmHg 94%
    03:00 +14°C° 0 mm 2 m/s 748 mmHg 94%
    04:00 +14°C° 0 mm 2 m/s 748 mmHg 93%
    05:00 +13°C° 0 mm 3 m/s 748 mmHg 91%
    06:00 +13°C° 0 mm 3 m/s 749 mmHg 90%
    07:00 +14°C° 0 mm 3 m/s 749 mmHg 85%
    08:00 +16°C° 0 mm 2 m/s 749 mmHg 80%
    09:00 +17°C° 0 mm 2 m/s 749 mmHg 75%
    10:00 +18°C° 0 mm 2 m/s 749 mmHg 71%
    11:00 +19°C° 0 mm 2 m/s 750 mmHg 67%
    12:00 +20°C° 0 mm 2 m/s 750 mmHg 63%
    13:00 +20°C° 0 mm 2 m/s 750 mmHg 64%
    14:00 +20°C° 0 mm 2 m/s 750 mmHg 64%
    15:00 +20°C° 0 mm 2 m/s 750 mmHg 65%
    16:00 +19°C° 0 mm 2 m/s 749 mmHg 68%
    17:00 +19°C° 0 mm 2 m/s 749 mmHg 71%
    18:00 +18°C° 0 mm 2 m/s 749 mmHg 74%
    19:00 +17°C° 0 mm 2 m/s 750 mmHg 76%
    20:00 +16°C° 0 mm 2 m/s 750 mmHg 77%
    21:00 +15°C° 0 mm 2 m/s 750 mmHg 78%
    22:00 +14°C° 0 mm 2 m/s 750 mmHg 82%
    23:00 +12°C° 0 mm 2 m/s 750 mmHg 85%

    21 Iunie, Vineri

    Timp Temperatura Precipitaţii Vânt Presiune Umiditate
    00:00 +10°C° 0 mm 2 m/s 750 mmHg 89%
    01:00 +10°C° 0 mm 2 m/s 750 mmHg 89%
    02:00 +10°C° 0 mm 1 m/s 750 mmHg 90%
    03:00 +10°C° 0 mm 1 m/s 751 mmHg 90%
    04:00 +11°C° 0 mm 1 m/s 751 mmHg 88%
    05:00 +12°C° 0 mm 2 m/s 751 mmHg 86%
    06:00 +13°C° 0 mm 2 m/s 751 mmHg 84%
    07:00 +14°C° 0 mm 2 m/s 752 mmHg 77%
    08:00 +16°C° 0 mm 2 m/s 752 mmHg 69%
    09:00 +17°C° 0 mm 2 m/s 752 mmHg 62%
    10:00 +18°C° 0 mm 2 m/s 752 mmHg 59%
    11:00 +19°C° 0 mm 2 m/s 752 mmHg 56%
    12:00 +20°C° 0 mm 2 m/s 752 mmHg 53%
    13:00 +20°C° 0 mm 2 m/s 752 mmHg 53%
    14:00 +20°C° 0 mm 3 m/s 752 mmHg 53%
    15:00 +20°C° 0 mm 3 m/s 751 mmHg 53%
    16:00 +20°C° 0 mm 3 m/s 752 mmHg 58%
    17:00 +19°C° 0 mm 3 m/s 752 mmHg 63%
    18:00 +19°C° 0 mm 2 m/s 752 mmHg 69%
    19:00 +17°C° 0 mm 2 m/s 752 mmHg 74%
    20:00 +15°C° 0 mm 2 m/s 752 mmHg 79%
    21:00 +13°C° 0 mm 2 m/s 753 mmHg 84%
    22:00 +13°C° 0 mm 2 m/s 753 mmHg 84%
    23:00 +12°C° 0 mm 2 m/s 753 mmHg 84%
    Arată mai mult